Regional Weather Roundup
Issued by NWS

Home | Current Version | Previous Version | Text Only | Print | Product List | Glossary Off
Versions: 1 2 3 4 5 6 7 8 9 10 11 12 13 14 15 16 17 18 19 20 21 22 23 24 25 26 27 28 29 30 31 32 33 34 35 36 37 38 39 40 41 42 43 44 45 46 47 48 49 50

000
ASUS43 KDTX 250001
RWRMI
MICHIGAN HOURLY REGIONAL WEATHER ROUNDUP
NATIONAL WEATHER SERVICE DETROIT/PONTIAC MI
800 PM EDT FRI MAR 24 2017

NOTE: "FAIR" INDICATES FEW OR NO CLOUDS BELOW 12,000 FEET WITH NO
SIGNIFICANT WEATHER AND/OR OBSTRUCTION TO VISIBILITY.

MIZ047>049-052>055-059>063-066>070-074>076-081>083-250100-
SOUTHEAST LOWER MICHIGAN

CITY           SKY/WX    TMP DP  RH WIND       PRES   REMARKS
ADRIAN         CLOUDY    68  54  60 SW16      29.99R
6HR MIN TEMP:  68; 6HR MAX TEMP:  75;

ALMA           CLOUDY    48  41  75 NE14G21   30.01R
ANN ARBOR      PTCLDY    70  53  54 S12       29.96R
BAD AXE        CLOUDY    38  34  87 N12       30.07R WCI  30
6HR MIN TEMP:  38; 6HR MAX TEMP:  63;

CARO           MOCLDY    43  37  81 NE8       30.04R
DETROIT CITY   CLOUDY    72  54  53 SW14      29.94R
6HR MIN TEMP:  67; 6HR MAX TEMP:  75;

DETROIT        CLOUDY    72  54  53 SW18      29.97R
6HR MIN TEMP:  68; 6HR MAX TEMP:  77;

FLINT          CLOUDY    61  49  64 N12       29.95R
6HR MIN TEMP:  60; 6HR MAX TEMP:  74;

GROSSE ILE     CLOUDY    70  53  54 SW9       29.96R
6HR MIN TEMP:  67; 6HR MAX TEMP:  73;

HILLSDALE      PTCLDY    68  54  60 SW15G22   29.98R
HOWELL         MOCLDY    65  47  52 E3        29.95R
6HR MIN TEMP:  65; 6HR MAX TEMP:  73;


CITY           SKY/WX    TMP DP  RH WIND       PRES   REMARKS
JACKSON        CLOUDY    71  53  52 SW13      29.95R
6HR MIN TEMP:  70; 6HR MAX TEMP:  77;

LAMBERTVILLE   CLEAR     73  53  50 SW12G20   29.99R
6HR MIN TEMP:  71; 6HR MAX TEMP:  77;

LANSING        PTCLDY    61  48  62 N3        29.96R
6HR MIN TEMP:  61; 6HR MAX TEMP:  74;

LAPEER         FAIR      49  39  68 NE9G17    29.99R
6HR MIN TEMP:  49; 6HR MAX TEMP:  73;

MASON          CLOUDY    65  53  63 CALM      29.95R
MONROE         CLEAR     69  55  61 SW12      29.96R
6HR MIN TEMP:  68; 6HR MAX TEMP:  74;

MT. CLEMENS    MOCLDY    52  23  31 NE14      29.97R
6HR MIN TEMP:  52; 6HR MAX TEMP:  74;

PONTIAC        CLOUDY    63  49  60 N3        29.95R
6HR MIN TEMP:  63; 6HR MAX TEMP:  74;

PORT HOPE        N/A     35  34  96 N6        30.07R WCI  30
6HR MIN TEMP:  35; 6HR MAX TEMP:  45;

PORT HURON     PTCLDY    41  34  75 NE9       30.00F
TRI CITIES     CLOUDY    40  37  89 NE20      30.04R WCI  30
6HR MIN TEMP:  40; 6HR MAX TEMP:  67;

MIDLAND        MOCLDY    42  36  77 E7        30.04R
6HR MIN TEMP:  42; 6HR MAX TEMP:  69;

TROY           MOCLDY    68  48  48 NW7       29.98R
SAGINAW HB     CLOUDY    41  34  75 NE17G23   30.04R
$$
MIZ043>046-050>051-056>058-064>065-071>073-077>080-250100-
SOUTHWEST LOWER MICHIGAN

CITY           SKY/WX    TMP DP  RH WIND       PRES   REMARKS
BATTLE CREEK   CLOUDY    68  56  65 SW15      29.95R
6HR MIN TEMP:  67; 6HR MAX TEMP:  78; 6HR PCP: TRACE;

BENTON HARBOR  CLOUDY    51  41  68 N8G17     29.98R
6HR MIN TEMP:  51; 6HR MAX TEMP:  79;

BIG RAPIDS     CLOUDY    44  36  72 N10       30.02R
6HR MIN TEMP:  44; 6HR MAX TEMP:  64;

COLDWATER      PTCLDY    69  53  55 SW10G21   29.98R
6HR MIN TEMP:  69; 6HR MAX TEMP:  76;

FREMONT        MOCLDY    50  37  60 N7        29.99R
HOLLAND        CLOUDY    54  43  66 N9        29.97R
6HR MIN TEMP:  52; 6HR MAX TEMP:  68;

GRAND RAPIDS   CLOUDY    62  48  60 N15G24    29.96R
6HR MIN TEMP:  62; 6HR MAX TEMP:  71;

IONIA          FAIR      59  48  67 N8        29.95R
6HR MIN TEMP:  58; 6HR MAX TEMP:  71;

KALAMAZOO      MOCLDY    72  52  49 SW18G24   29.95R
6HR MIN TEMP:  72; 6HR MAX TEMP:  79; 6HR PCP: TRACE;

LUDINGTON      LGT RAIN  38  38  98 NE8G17    30.04R WCI  32
6HR MIN TEMP:  38; 6HR MAX TEMP:  52; 6HR PCP:  0.05;

MARSHALL       CLOUDY    72  54  53 SW13G21   29.95R
6HR MIN TEMP:  72; 6HR MAX TEMP:  78;

MOUNT PLEASANT CLOUDY    48  38  67 N9G16     30.03R
6HR MIN TEMP:  48; 6HR MAX TEMP:  67;

MUSKEGON       CLOUDY    56  43  61 N7        29.98R
6HR MIN TEMP:  54; 6HR MAX TEMP:  65;

SOUTH HAVEN    CLOUDY    46  39  79 N8        29.98R
$$
MIZ016>042-250100-
NORTHERN LOWER MICHIGAN

CITY           SKY/WX    TMP DP  RH WIND       PRES   REMARKS
ALPENA         LGT RAIN  34  34 100 NW5       30.12R WCI  30
6HR MIN TEMP:  34; 6HR MAX TEMP:  40; 6HR PCP:  0.28;

BEAVER ISLAND  CLOUDY    35  34  98 CALM      30.13R
6HR MIN TEMP:  33; 6HR MAX TEMP:  35;

BELLAIRE       FLURRIES  35  33  94 CALM      30.11R
6HR MIN TEMP:  35; 6HR MAX TEMP:  39;

CADILLAC       MIX PCPN  36  35  96 N6        30.06R WCI  31
CHARLEVOIX     CLOUDY    33  33 100 N3        30.14R
6HR MIN TEMP:  33; 6HR MAX TEMP:  34;

FRANKFORT      RAIN      35  33  90 CALM      30.09F
GAYLORD        LGT RAIN  35  31  85 NE5       30.07R WCI  31
6HR MIN TEMP:  35; 6HR MAX TEMP:  39; 6HR PCP:  0.35;

GRAYLING       LGT RAIN  36  34  93 N5        30.09R WCI  32
HARBOR SPRINGS CLOUDY    34  33  96 NE5       30.11R WCI  30
HOUGHTON LAKE  HVY RAIN  37  36  96 N6        30.06R FOG     WCI  32
6HR MIN TEMP:  37; 6HR MAX TEMP:  56; 6HR PCP:  0.18;

MANISTEE       LGT RAIN  37  35  92 NE9       30.05F WCI  30
OSCODA         MIX PCPN  37  35  93 N9        30.09R WCI  30
6HR MIN TEMP:  37; 6HR MAX TEMP:  50;

PELLSTON       CLOUDY    35  32  88 CALM      30.12R
6HR MIN TEMP:  34; 6HR MAX TEMP:  37; 6HR PCP:  0.34;

ROGERS CITY    MIX PCPN  33  32  96 CALM        N/A
TRAVERSE CITY  LGT RAIN  36  33  89 NE3       30.09R FOG
6HR MIN TEMP:  35; 6HR MAX TEMP:  40; 6HR PCP:  0.17;

$$
MIZ007>008-015-250100-
EASTERN UPPER MICHIGAN

CITY           SKY/WX    TMP DP  RH WIND       PRES   REMARKS
KINROSS        CLOUDY    33  32  96 N7        30.12R FOG     WCI  27
6HR MIN TEMP:  33; 6HR MAX TEMP:  35; 6HR PCP: TRACE;

MACKINAC ISLAN CLOUDY    33  33 100 N5        30.11R FOG     WCI  29
6HR MIN TEMP:  32; 6HR MAX TEMP:  34; 6HR PCP:  0.10;

NEWBERRY       CLOUDY    33  32  96 N6        30.12R WCI  27
6HR MIN TEMP:  33; 6HR MAX TEMP:  35;

S. S. MARIE    CLOUDY    36  32  85 NW5       30.12R WCI  32
6HR MIN TEMP:  35; 6HR MAX TEMP:  39; 6HR PCP: TRACE;

MUNISING         N/A     34  33  96 NE8       30.16R WCI  27
6HR MIN TEMP:  34; 6HR MAX TEMP:  35;

$$
MIZ004>006-011>014-085-250100-
CENTRAL UPPER MICHIGAN

CITY           SKY/WX    TMP DP  RH WIND       PRES   REMARKS
MANISTIQUE     CLOUDY    34  34 100 N7        30.13R WCI  28
ESCANABA       CLOUDY    36  34  92 N5        30.15R WCI  32
6HR MIN TEMP:  36; 6HR MAX TEMP:  37; 6HR PCP:  0.05;

MENOMINEE        N/A    N/A N/A N/A MISG        N/A
SAWYER-GWINN   FOG       32  32 100 N10       30.14R VSB 1   WCI  24
$$
MIZ001>003-009>011-084-250100-
WESTERN UPPER MICHIGAN

CITY           SKY/WX    TMP DP  RH WIND       PRES   REMARKS
IRON MOUNTAIN  CLOUDY    36  30  79 N8        30.14R WCI  30
6HR MIN TEMP:  36; 6HR MAX TEMP:  37; 6HR PCP: TRACE;

HOUGHTON       CLOUDY    35  29  78 NE10      30.18R WCI  27
6HR MIN TEMP:  35; 6HR MAX TEMP:  38;

COPPER HARBOR    N/A     35  31  85 E15       30.20R WCI  25
6HR MIN TEMP:  35; 6HR MAX TEMP:  36;

IRONWOOD       CLOUDY    35  32  88 N5        30.17R WCI  31
6HR MIN TEMP:  34; 6HR MAX TEMP:  37;

$$

ABBREVIATIONS USED IN REMARKS
   TC - TEMPERATURE IN CELSIUS
  WCI - WIND CHILL INDEX
   HX - HEAT INDEX
  VSB - VISIBILITY





USA.gov is the U.S. government's official web portal to all federal, state and local government web resources and services.